[[{"header":{"parameterUnit":"m.s-1","parameterCategory":1,"la1":30.2991,"la2":30.254,"lo1":-89.0895,"lo2":-89.0444,"dy":0.0017,"dx":0.0017,"nx":28,"ny":28,"refTime":"2024-03-02T09:00:00:Z","depth":0,"parameterNumber":2,"parameterNumberName":"U-component_of_WINDS"},"data":[0,0,0,0,0,0,0,0,0,0,0,0,0,0,0,0,0,0,0,0,0,0,0,0,0,0,0,0,0,0,0,0,0,0,0,0,0,0,0,0,0,0,0,0,0,0,0,0,0,0,0,0,0,0,0,0,0,0,-3.9019,-3.902,0,-3.9028,-3.9029,-3.9029,-3.8929,-3.8926,-3.8923,-3.892,-3.8932,-3.8935,-3.8938,0,0,0,0,0,0,0,0,0,0,0,0,0,-3.892,-3.8923,-3.9019,-3.902,-3.902,-3.9028,-3.9029,-3.9029,-3.8929,-3.8926,-3.8922,-3.8919,-3.8931,-3.8935,-3.8938,0,0,0,0,0,0,0,0,0,0,0,0,0,-3.895,-3.8923,-3.9019,-3.8971,-3.8967,-3.9028,-3.9029,-3.9029,-3.893,-3.8926,-3.8921,-3.8918,-3.893,-3.8935,-3.8939,-3.9048,0,0,-3.8952,-3.8954,0,0,0,0,0,0,0,0,-3.8948,-3.8954,-3.8978,-3.8974,-3.897,-3.8973,-3.8998,-3.9035,-3.8931,-3.8944,-3.892,-3.8916,-3.895,-3.8952,-3.8963,-3.9049,-3.9049,-3.8952,-3.8955,-3.8957,-3.8958,0,0,0,0,0,0,0,-3.8946,-3.8953,-3.9023,-3.8979,-3.8974,-3.895,-3.895,-3.9004,-3.897,-3.8942,-3.8935,-3.8937,-3.8946,-3.8959,-3.8962,-3.9049,-3.8952,-3.8956,-3.8959,-3.8961,-3.9228,-3.9232,0,0,0,0,0,0,-3.895,-3.8952,-3.9023,-3.9023,-3.8949,-3.8955,-3.8955,-3.8976,-3.8969,-3.8964,-3.8941,-3.8933,-3.8954,-3.8957,-3.8962,-3.909,-3.8957,-3.8961,-3.8963,-3.9223,-3.9229,-3.9234,0,0,0,0,0,0,-3.8949,-3.8958,-3.9022,-3.8986,-3.8992,-3.8961,-3.8986,-3.8979,-3.8991,-3.8968,-3.8961,-3.896,-3.895,-3.8956,-3.9028,-3.9089,-3.8963,-3.8967,-3.9218,-3.9225,-3.9231,-3.9347,0,0,0,0,0,0,-3.8946,-3.8958,-3.8998,-3.8987,-3.8994,-3.9087,-3.899,-3.8982,-3.8998,-3.8988,-3.8984,-3.8979,-3.8948,-3.9022,-3.9032,-3.9093,-3.897,-3.9212,-3.9221,-3.9229,-3.9338,-3.9357,-3.9374,0,0,0,0,0,-3.8943,-3.903,-3.9,-3.9009,-3.9043,-3.909,-3.9094,-3.9056,-3.9004,-3.9044,-3.903,-3.8979,-3.9082,-3.903,-3.9041,-3.9104,-3.9208,-3.9219,-3.9228,-3.933,-3.9354,-3.9374,0,0,0,0,0,0,-3.9049,-3.9028,-3.8994,-3.908,-3.9088,-3.9073,-3.9123,-3.9082,-3.9105,-3.9094,-3.9046,-3.9046,-3.9126,-3.9122,-3.9065,-3.9211,-3.9136,-3.9149,-3.9209,-3.9232,-3.9249,-3.9248,-3.8974,0,0,0,0,0,-3.9082,-3.9121,-3.9101,-3.9179,-3.9184,-3.9154,-3.9173,-3.9142,-3.9148,-3.9151,-3.9142,-3.9151,-3.9185,-3.9208,-3.9238,-3.9338,-3.9336,-3.9387,-3.9405,-3.942,-3.9431,-3.9485,-3.9507,-3.9267,-3.9267,-3.9267,0,0,-3.9151,-3.9145,-3.9172,-3.92,-3.9202,-3.9245,-3.9157,-3.9205,-3.9236,-3.9159,-3.9225,-3.922,-3.9227,-3.9313,-3.935,-3.9312,-3.9498,-3.9433,-3.9445,-3.9448,-3.9497,-3.952,-3.9541,-3.9274,-3.9272,-3.9271,0,0,-3.9299,-3.9298,-3.9363,-3.9367,-3.9372,-3.9351,-3.9368,-3.936,-3.9353,-3.9419,-3.9362,-3.94,-3.9459,-3.9467,-3.9479,-3.9633,-3.9588,-3.9645,-3.9738,-3.9791,-3.981,-3.9826,-3.9882,-3.9902,-3.9656,-3.9656,-3.9657,0,-3.9384,-3.9444,-3.9402,-3.9454,-3.9469,-3.9401,-3.9468,-3.9475,-3.949,-3.9502,-3.9459,-3.9534,-3.9534,-3.9621,-3.9659,-3.9671,-3.9689,-3.9644,-3.981,-3.9827,-3.9841,-3.9894,-3.9915,-3.9663,-3.9663,-3.9662,-3.9661,0,-3.955,-3.9593,-3.9645,-3.9661,-3.9682,-3.9742,-3.971,-3.9736,-3.9706,-3.969,-3.976,-3.9758,-3.9787,-3.9806,-3.9776,-3.989,-3.9867,-3.9819,-3.9742,-3.9872,-3.992,-3.994,-3.9673,-3.9671,-3.9669,-3.9667,0,0,-3.9761,-3.9754,-3.9774,-3.9781,-3.9783,-3.9816,-3.9874,-3.9902,-3.9926,-3.994,-3.9988,-4.0042,-3.9997,-4.0011,-3.9982,-4.0029,-4.0152,-3.9974,-3.9974,-4.0007,-4.0279,-4.0314,-4.0338,-4.0123,-4.0126,-4.0129,-4.0278,0,-3.9904,-4.0,-3.9965,-4.0065,-4.0105,-4.0043,-4.0094,-4.0101,-4.009,-4.0123,-4.0111,-4.0149,-4.0088,-4.0096,-4.0139,-4.0128,-4.0206,-4.0117,-4.0167,-4.017,-4.0166,-4.0363,-4.0401,-4.0541,-4.0297,-4.03,-4.0302,0,-4.0083,-4.0104,-4.0208,-4.0204,-4.022,-4.0266,-4.029,-4.0322,-4.0331,-4.0319,-4.0336,-4.0298,-4.0356,-4.0282,-4.0362,-4.0302,-4.0322,-4.032,-4.0324,-4.0326,-4.0243,-4.037,-4.0585,-4.0606,-4.0331,-4.0329,-4.0327,0,-4.0227,-4.0281,-4.035,-4.0358,-4.0356,-4.039,-4.0391,-4.0395,-4.0415,-4.0437,-4.045,-4.0479,-4.0495,-4.0519,-4.0491,-4.0439,-4.0576,-4.0498,-4.0568,-4.0569,-4.0598,-4.0597,-4.0818,-4.0613,-4.0613,-4.0612,-4.0612,0,-4.0389,-4.0455,-4.0415,-4.0457,-4.053,-4.0491,-4.0564,-4.0558,-4.0564,-4.0605,-4.0554,-4.0594,-4.0555,-4.0592,-4.0571,-4.0641,-4.0649,-4.0642,-4.0635,-4.0646,-4.0647,-4.0656,-4.0646,-4.0618,-4.0617,-4.0616,-4.0615,0,-4.0561,-4.0536,-4.0608,-4.0601,-4.0601,-4.0655,-4.0649,-4.0689,-4.0675,-4.0729,-4.0739,-4.0717,-4.0759,-4.0733,-4.0775,-4.0761,-4.0853,-4.0833,-4.085,-4.0844,-4.0915,-4.0909,-4.115,-4.118,-4.0956,-4.0959,-4.096,0,-4.0665,-4.0715,-4.0714,-4.0738,-4.0742,-4.0781,-4.0801,-4.0766,-4.079,-4.0805,-4.0844,-4.0881,-4.0908,-4.0978,-4.0967,-4.1,-4.098,-4.1062,-4.0984,-4.0994,-4.0981,-4.0978,-4.0983,-4.1078,-4.108,-4.1082,-4.1084,0,-4.0854,-4.084,-4.0871,-4.0899,-4.0925,-4.0945,-4.0961,-4.0984,-4.0949,-4.0979,-4.102,-4.1042,-4.1086,-4.1124,-4.1153,-4.1155,-4.1115,-4.1109,-4.1127,-4.1138,-4.1145,-4.1142,-4.0892,-4.1103,-4.1101,-4.11,-4.1099,-4.1098,-4.0995,-4.1036,-4.1042,-4.1079,-4.1088,-4.1105,-4.1143,-4.1134,-4.1168,-4.12,-4.1178,-4.1228,-4.1238,-4.1272,-4.128,-4.1319,-4.1286,-4.1312,-4.1318,-4.1325,-4.1335,-4.114,-4.1325,-4.1324,-4.1323,-4.1323,-4.1323,0,-4.118,-4.1182,-4.1217,-4.1241,-4.1271,-4.1231,-4.1247,-4.1275,-4.1319,-4.1332,-4.1361,-4.141,-4.1448,-4.144,-4.1475,-4.1508,-4.1491,-4.1518,-4.1515,-4.1516,-4.1363,-4.1343,-4.1532,-4.1532,-4.1532,-4.1532,-4.1532,-4.1532,-4.128,-4.1348,-4.1336,-4.1409,-4.1411,-4.1459,-4.1472,-4.1488,-4.1498,-4.1555,-4.1586,-4.1581,-4.1586,-4.1621,-4.1654,-4.1651,-4.1666,-4.1701,-4.1692,-4.1548,-4.1527,-4.1507,-4.1489,-4.1705,-4.1705,-4.1842,-4.1843,-4.1844]},{"header":{"parameterUnit":"m.s-1","parameterCategory":1,"la1":30.2991,"la2":30.254,"lo1":-89.0895,"lo2":-89.0444,"dy":0.0017,"dx":0.0017,"nx":28,"ny":28,"refTime":"2024-03-02T09:00:00:Z","depth":0,"parameterNumber":3,"parameterNumberName":"V-component_of_WINDS"},"data":[0,0,0,0,0,0,0,0,0,0,0,0,0,0,0,0,0,0,0,0,0,0,0,0,0,0,0,0,0,0,0,0,0,0,0,0,0,0,0,0,0,0,0,0,0,0,0,0,0,0,0,0,0,0,0,0,0,0,0.7299,0.73,0,0.7348,0.7348,0.7349,0.7414,0.7415,0.7416,0.7417,0.7465,0.7465,0.7465,0,0,0,0,0,0,0,0,0,0,0,0,0,0.7261,0.7261,0.7299,0.73,0.73,0.7348,0.7348,0.7349,0.7414,0.7415,0.7417,0.7418,0.7464,0.7465,0.7465,0,0,0,0,0,0,0,0,0,0,0,0,0,0.729,0.7261,0.7299,0.7338,0.7343,0.7347,0.7348,0.7349,0.7414,0.7415,0.7417,0.7419,0.7464,0.7465,0.7465,0.7434,0,0,0.7466,0.7466,0,0,0,0,0,0,0,0,0.7288,0.7291,0.7332,0.7336,0.734,0.7377,0.7352,0.7378,0.7413,0.7387,0.7418,0.7419,0.7434,0.7437,0.7442,0.7436,0.7438,0.7466,0.7466,0.7466,0.7467,0,0,0,0,0,0,0,0.7286,0.729,0.7318,0.7333,0.7338,0.7353,0.7359,0.7357,0.74,0.7389,0.7394,0.7399,0.7436,0.7442,0.7444,0.7439,0.7466,0.7466,0.7467,0.7467,0.7412,0.7411,0,0,0,0,0,0,0.7279,0.7288,0.7317,0.732,0.7318,0.7353,0.7359,0.7363,0.7401,0.7408,0.7398,0.7402,0.744,0.7443,0.7446,0.7413,0.7466,0.7467,0.7467,0.7414,0.7412,0.741,0,0,0,0,0,0,0.7278,0.7281,0.7315,0.7305,0.7311,0.7352,0.7355,0.7363,0.7369,0.7407,0.7415,0.7395,0.7442,0.7445,0.7437,0.7416,0.7467,0.7467,0.7416,0.7413,0.7411,0.7347,0,0,0,0,0,0,0.7276,0.728,0.7269,0.7304,0.7311,0.7306,0.7354,0.7363,0.737,0.7376,0.7407,0.7414,0.7443,0.7436,0.7437,0.7417,0.7468,0.7418,0.7415,0.7412,0.7351,0.7343,0.7335,0,0,0,0,0,0.7275,0.7248,0.7268,0.7271,0.7298,0.7304,0.7308,0.7343,0.7368,0.7357,0.7382,0.7413,0.7418,0.7435,0.7437,0.7416,0.7419,0.7415,0.7412,0.7355,0.7344,0.7335,0,0,0,0,0,0,0.7207,0.7253,0.7276,0.726,0.7278,0.7315,0.7303,0.7331,0.7342,0.7347,0.739,0.7396,0.7383,0.7399,0.7417,0.7389,0.7423,0.742,0.7379,0.737,0.7362,0.7358,0.7468,0,0,0,0,0,0.7191,0.7193,0.7233,0.7215,0.7223,0.7261,0.7265,0.7291,0.7311,0.7318,0.7342,0.736,0.7366,0.7369,0.7376,0.7354,0.7362,0.7341,0.7333,0.7326,0.7322,0.7313,0.7304,0.7398,0.7398,0.7398,0,0,0.7156,0.7182,0.718,0.7202,0.7219,0.722,0.7267,0.7265,0.7266,0.7318,0.7312,0.7331,0.7353,0.7338,0.7333,0.7351,0.7299,0.7321,0.7316,0.7316,0.7308,0.7299,0.7292,0.7395,0.7396,0.7396,0,0,0.7094,0.7113,0.7101,0.7118,0.7144,0.717,0.7166,0.72,0.7215,0.721,0.7249,0.7251,0.7259,0.7274,0.7283,0.7228,0.7257,0.7229,0.7187,0.7178,0.717,0.7164,0.7145,0.7138,0.7225,0.7225,0.7225,0,0.7048,0.7052,0.7091,0.7088,0.7097,0.7145,0.7133,0.7147,0.7173,0.7177,0.7198,0.7211,0.7229,0.7219,0.7206,0.7211,0.7209,0.7225,0.7168,0.7162,0.7157,0.714,0.7132,0.7222,0.7222,0.7222,0.7223,0,0.6994,0.6996,0.6983,0.7008,0.7016,0.7008,0.7046,0.7048,0.7074,0.7098,0.7093,0.7117,0.7131,0.713,0.7154,0.7124,0.7134,0.7161,0.7196,0.7144,0.7128,0.7122,0.7216,0.7218,0.7219,0.722,0,0,0.689,0.6939,0.6934,0.6947,0.6979,0.6981,0.6975,0.699,0.6992,0.7008,0.7005,0.7012,0.7037,0.7047,0.7073,0.7065,0.7021,0.7093,0.7094,0.7079,0.699,0.697,0.6961,0.7041,0.704,0.7039,0.6988,0,0.6834,0.6829,0.6865,0.685,0.6852,0.6899,0.6895,0.6914,0.6936,0.6941,0.6965,0.697,0.7003,0.7009,0.7003,0.7028,0.7004,0.7032,0.7038,0.7038,0.7031,0.6953,0.6932,0.6883,0.6982,0.6981,0.698,0,0.6769,0.6783,0.6769,0.6803,0.6806,0.6801,0.6818,0.6822,0.6845,0.6862,0.6874,0.6905,0.6902,0.6936,0.6932,0.6951,0.6955,0.6968,0.6967,0.6969,0.7006,0.6953,0.6868,0.686,0.6971,0.6971,0.6972,0,0.6695,0.6711,0.6705,0.6714,0.6754,0.675,0.6766,0.6791,0.6798,0.6813,0.6818,0.6831,0.6838,0.6848,0.6882,0.6903,0.6875,0.6911,0.6889,0.6888,0.6881,0.6881,0.6795,0.6883,0.6883,0.6883,0.6883,0,0.663,0.6619,0.6673,0.6669,0.6659,0.67,0.6689,0.6709,0.6731,0.6732,0.6773,0.6772,0.6817,0.6822,0.6848,0.6842,0.6845,0.6858,0.6865,0.6855,0.6853,0.6858,0.6863,0.6881,0.6881,0.6882,0.6882,0,0.6546,0.6582,0.6578,0.6617,0.6626,0.6617,0.665,0.6648,0.6673,0.6674,0.6676,0.6715,0.6723,0.6758,0.6774,0.6792,0.6776,0.679,0.6769,0.6774,0.6749,0.6751,0.6664,0.6655,0.6748,0.6747,0.6747,0,0.6502,0.6495,0.6534,0.6538,0.6553,0.6558,0.6566,0.6607,0.6614,0.664,0.6635,0.6646,0.6657,0.6667,0.6697,0.6709,0.6724,0.6693,0.6726,0.6716,0.6724,0.6724,0.6724,0.6686,0.6684,0.6683,0.6683,0,0.642,0.6439,0.6449,0.6465,0.6474,0.6489,0.6506,0.6506,0.6552,0.6557,0.6566,0.6575,0.6592,0.6603,0.662,0.6637,0.6667,0.6672,0.6668,0.6657,0.6645,0.6652,0.675,0.6674,0.6675,0.6675,0.6676,0.6676,0.6356,0.6352,0.6379,0.639,0.6407,0.6422,0.6423,0.6449,0.6458,0.6475,0.6499,0.6505,0.6529,0.6556,0.657,0.6575,0.6593,0.6586,0.6584,0.6582,0.6577,0.6644,0.6579,0.6579,0.6579,0.6579,0.658,0,0.6277,0.6297,0.6306,0.633,0.6338,0.6367,0.6388,0.6392,0.6398,0.6418,0.6429,0.644,0.6451,0.6481,0.6495,0.6494,0.6508,0.6496,0.6497,0.65,0.6561,0.6563,0.6484,0.6484,0.6484,0.6484,0.6484,0.6484,0.6237,0.6233,0.6255,0.626,0.628,0.6288,0.6297,0.6311,0.6328,0.6339,0.6349,0.6369,0.6394,0.641,0.6422,0.6431,0.6434,0.6417,0.643,0.6486,0.6496,0.6504,0.6507,0.6418,0.6417,0.637,0.6369,0.6369]}]]